Time,TemperatureF,DewpointF,PressureIn,WindDirection,WindDirectionDegrees,WindSpeedMPH,WindSpeedGustMPH,Humidity,HourlyPrecipIn,Conditions,Clouds,dailyrainin,SoftwareType,DateUTC
2013-05-13 00:05:00,71.3,68.2,30.02,ENE,63,6.0,7.0,90,0.00,,,0.00,Wunderground v.1.15,2013-05-13 10:05:00,
2013-05-13 00:15:00,71.8,68.4,30.02,ENE,64,5.0,6.0,89,0.00,,,0.00,Wunderground v.1.15,2013-05-13 10:15:00,
2013-05-13 00:25:00,72.0,68.6,30.02,ENE,76,5.0,6.0,89,0.00,,,0.01,Wunderground v.1.15,2013-05-13 10:25:00,
2013-05-13 00:35:00,71.8,68.7,30.02,East,83,6.0,6.0,90,0.00,,,0.01,Wunderground v.1.15,2013-05-13 10:35:00,
2013-05-13 00:45:00,71.9,68.8,30.02,East,86,5.0,6.0,90,0.00,,,0.01,Wunderground v.1.15,2013-05-13 10:45:00,
2013-05-13 00:50:00,71.7,68.6,30.02,ENE,61,6.0,6.0,90,0.00,,,0.01,Wunderground v.1.15,2013-05-13 10:50:00,
2013-05-13 01:00:00,71.3,68.5,30.02,ESE,106,5.0,5.0,91,0.00,,,0.01,Wunderground v.1.15,2013-05-13 11:00:00,
2013-05-13 01:05:00,71.2,68.4,30.01,East,98,7.0,7.0,91,0.00,,,0.02,Wunderground v.1.15,2013-05-13 11:05:00,
2013-05-13 01:15:00,71.3,67.9,30.01,ESE,104,6.0,7.0,89,0.00,,,0.02,Wunderground v.1.15,2013-05-13 11:15:00,
2013-05-13 01:25:00,71.6,68.2,30.01,ESE,109,5.0,6.0,89,0.00,,,0.02,Wunderground v.1.15,2013-05-13 11:25:00,
2013-05-13 01:30:00,71.7,68.3,30.01,NE,53,5.0,7.0,89,0.00,,,0.02,Wunderground v.1.15,2013-05-13 11:30:00,
2013-05-13 01:40:00,72.0,68.6,30.01,NNE,33,6.0,6.0,89,0.00,,,0.02,Wunderground v.1.15,2013-05-13 11:40:00,
2013-05-13 01:50:00,71.8,68.7,30.01,East,91,4.0,4.0,90,0.00,,,0.02,Wunderground v.1.15,2013-05-13 11:50:00,
2013-05-13 02:00:00,71.7,68.3,30.01,ESE,109,4.0,5.0,89,0.00,,,0.02,Wunderground v.1.15,2013-05-13 12:00:00,
2013-05-13 02:05:00,71.9,68.5,30.01,ESE,105,4.0,6.0,89,0.00,,,0.02,Wunderground v.1.15,2013-05-13 12:05:00,
2013-05-13 02:15:00,72.0,68.6,30.01,East,90,4.0,10.0,89,0.00,,,0.02,Wunderground v.1.15,2013-05-13 12:15:00,
2013-05-13 02:20:00,72.2,68.8,30.00,East,92,5.0,8.0,89,0.00,,,0.02,Wunderground v.1.15,2013-05-13 12:20:00,
2013-05-13 02:30:00,72.3,68.9,30.00,East,83,5.0,5.0,89,0.00,,,0.02,Wunderground v.1.15,2013-05-13 12:30:00,
2013-05-13 02:40:00,72.6,69.2,30.00,East,79,6.0,9.0,89,0.00,,,0.02,Wunderground v.1.15,2013-05-13 12:40:00,
2013-05-13 02:50:00,72.6,69.2,30.00,ENE,76,6.0,6.0,89,0.00,,,0.02,Wunderground v.1.15,2013-05-13 12:50:00,
2013-05-13 02:55:00,72.6,69.2,29.99,East,88,6.0,6.0,89,0.00,,,0.02,Wunderground v.1.15,2013-05-13 12:55:00,
2013-05-13 03:05:00,72.5,69.1,30.00,NE,42,4.0,6.0,89,0.00,,,0.02,Wunderground v.1.15,2013-05-13 13:05:00,
2013-05-13 03:15:00,72.6,69.2,30.00,ENE,66,5.0,5.0,89,0.00,,,0.02,Wunderground v.1.15,2013-05-13 13:15:00,
2013-05-13 03:25:00,71.7,68.9,30.00,East,92,7.0,11.0,91,0.00,,,0.03,Wunderground v.1.15,2013-05-13 13:25:00,
2013-05-13 03:35:00,71.1,68.7,30.00,East,82,5.0,6.0,92,0.00,,,0.03,Wunderground v.1.15,2013-05-13 13:35:00,
2013-05-13 03:40:00,71.0,68.9,29.99,ENE,64,5.0,8.0,93,0.00,,,0.03,Wunderground v.1.15,2013-05-13 13:40:00,
2013-05-13 03:50:00,71.0,68.9,29.99,ENE,59,5.0,5.0,93,0.00,,,0.04,Wunderground v.1.15,2013-05-13 13:50:00,
2013-05-13 04:00:00,71.2,69.4,29.99,ENE,75,3.0,3.0,94,0.00,,,0.04,Wunderground v.1.15,2013-05-13 14:00:00,
2013-05-13 04:05:00,71.4,69.6,29.99,NE,55,3.0,3.0,94,0.00,,,0.04,Wunderground v.1.15,2013-05-13 14:05:00,
2013-05-13 04:15:00,71.6,69.8,29.99,ENE,69,4.0,5.0,94,0.00,,,0.04,Wunderground v.1.15,2013-05-13 14:15:00,
2013-05-13 04:25:00,71.6,69.8,29.99,ENE,76,5.0,6.0,94,0.00,,,0.04,Wunderground v.1.15,2013-05-13 14:25:00,
2013-05-13 04:35:00,71.5,69.7,29.99,NE,41,5.0,12.0,94,0.00,,,0.04,Wunderground v.1.15,2013-05-13 14:35:00,
2013-05-13 04:40:00,71.6,69.8,29.99,NE,55,5.0,5.0,94,0.00,,,0.04,Wunderground v.1.15,2013-05-13 14:40:00,
2013-05-13 04:50:00,71.5,69.4,30.00,ENE,67,4.0,4.0,93,0.00,,,0.04,Wunderground v.1.15,2013-05-13 14:50:00,
2013-05-13 05:00:00,71.6,69.2,30.00,East,89,4.0,4.0,92,0.00,,,0.04,Wunderground v.1.15,2013-05-13 15:00:00,
2013-05-13 05:05:00,71.7,69.3,30.00,NNE,29,4.0,4.0,92,0.00,,,0.04,Wunderground v.1.15,2013-05-13 15:05:00,
2013-05-13 05:15:00,71.7,69.3,30.00,East,82,3.0,4.0,92,0.00,,,0.04,Wunderground v.1.15,2013-05-13 15:15:00,
2013-05-13 05:25:00,71.9,69.4,30.00,NE,53,4.0,5.0,92,0.00,,,0.04,Wunderground v.1.15,2013-05-13 15:25:00,
2013-05-13 05:35:00,72.0,69.9,30.00,ENE,74,3.0,6.0,93,0.12,,,0.07,Wunderground v.1.15,2013-05-13 15:35:00,
2013-05-13 05:40:00,71.9,69.8,30.00,East,84,4.0,4.0,93,0.11,,,0.08,Wunderground v.1.15,2013-05-13 15:40:00,
2013-05-13 05:50:00,71.6,69.8,30.00,East,86,7.0,7.0,94,0.04,,,0.08,Wunderground v.1.15,2013-05-13 15:50:00,
2013-05-13 06:00:00,71.4,69.6,30.00,East,101,7.0,7.0,94,0.00,,,0.08,Wunderground v.1.15,2013-05-13 16:00:00,
2013-05-13 06:05:00,71.4,69.6,30.00,NE,38,7.0,7.0,94,0.00,,,0.09,Wunderground v.1.15,2013-05-13 16:05:00,
2013-05-13 06:15:00,71.6,69.8,30.01,NNE,28,7.0,7.0,94,0.00,,,0.09,Wunderground v.1.15,2013-05-13 16:15:00,
2013-05-13 06:25:00,71.4,69.6,30.01,NE,42,7.0,7.0,94,0.00,,,0.10,Wunderground v.1.15,2013-05-13 16:25:00,
2013-05-13 06:35:00,71.4,69.6,30.02,NE,39,5.0,6.0,94,0.00,,,0.10,Wunderground v.1.15,2013-05-13 16:35:00,
2013-05-13 06:45:00,71.3,69.5,30.02,NE,54,5.0,6.0,94,0.04,,,0.11,Wunderground v.1.15,2013-05-13 16:45:00,
2013-05-13 06:55:00,71.4,69.6,30.03,ENE,75,6.0,9.0,94,0.04,,,0.11,Wunderground v.1.15,2013-05-13 16:55:00,
2013-05-13 07:00:00,71.5,69.7,30.03,ENE,64,6.0,7.0,94,0.00,,,0.11,Wunderground v.1.15,2013-05-13 17:00:00,
2013-05-13 07:05:00,71.6,69.8,30.03,ENE,74,6.0,7.0,94,0.00,,,0.11,Wunderground v.1.15,2013-05-13 17:05:00,
2013-05-13 07:15:00,71.6,69.8,30.03,ENE,74,5.0,6.0,94,0.00,,,0.11,Wunderground v.1.15,2013-05-13 17:15:00,
2013-05-13 07:25:00,71.6,69.8,30.03,NE,37,6.0,6.0,94,0.00,,,0.11,Wunderground v.1.15,2013-05-13 17:25:00,
2013-05-13 07:30:00,71.5,69.4,30.04,East,84,7.0,7.0,93,0.00,,,0.12,Wunderground v.1.15,2013-05-13 17:30:00,
2013-05-13 07:40:00,71.3,69.2,30.04,NNE,32,6.0,10.0,93,0.00,,,0.12,Wunderground v.1.15,2013-05-13 17:40:00,
2013-05-13 07:50:00,71.6,69.5,30.04,East,87,7.0,7.0,93,0.00,,,0.12,Wunderground v.1.15,2013-05-13 17:50:00,
2013-05-13 08:00:00,71.6,69.5,30.05,NNE,32,7.0,13.0,93,0.00,,,0.12,Wunderground v.1.15,2013-05-13 18:00:00,
2013-05-13 08:05:00,71.6,69.5,30.05,ENE,74,8.0,13.0,93,0.00,,,0.12,Wunderground v.1.15,2013-05-13 18:05:00,
2013-05-13 08:15:00,71.4,69.3,30.05,NE,40,7.0,8.0,93,0.00,,,0.12,Wunderground v.1.15,2013-05-13 18:15:00,
2013-05-13 08:25:00,71.6,69.5,30.05,ENE,63,7.0,9.0,93,0.00,,,0.12,Wunderground v.1.15,2013-05-13 18:25:00,
2013-05-13 08:30:00,71.5,69.4,30.05,East,84,6.0,7.0,93,0.00,,,0.12,Wunderground v.1.15,2013-05-13 18:30:00,
2013-05-13 08:40:00,71.6,69.5,30.05,NE,41,8.0,8.0,93,0.00,,,0.12,Wunderground v.1.15,2013-05-13 18:40:00,
2013-05-13 08:50:00,71.5,69.4,30.05,NE,36,7.0,7.0,93,0.00,,,0.12,Wunderground v.1.15,2013-05-13 18:50:00,
2013-05-13 09:00:00,71.3,69.5,30.05,ENE,59,8.0,9.0,94,0.00,,,0.12,Wunderground v.1.15,2013-05-13 19:00:00,
2013-05-13 09:05:00,71.2,69.4,30.05,ENE,74,8.0,9.0,94,0.00,,,0.13,Wunderground v.1.15,2013-05-13 19:05:00,
2013-05-13 09:15:00,71.5,70.0,30.05,ENE,68,6.0,8.0,95,0.08,,,0.14,Wunderground v.1.15,2013-05-13 19:15:00,
2013-05-13 09:25:00,71.7,69.9,30.06,ENE,66,7.0,7.0,94,0.04,,,0.14,Wunderground v.1.15,2013-05-13 19:25:00,
2013-05-13 09:35:00,71.8,70.0,30.06,East,89,7.0,7.0,94,0.00,,,0.14,Wunderground v.1.15,2013-05-13 19:35:00,
2013-05-13 09:44:00,72.0,69.9,30.06,ESE,105,7.0,15.0,93,0.00,,,0.14,Wunderground v.1.15,2013-05-13 19:44:00,
2013-05-13 09:50:00,71.9,69.8,30.06,ENE,72,8.0,8.0,93,0.00,,,0.14,Wunderground v.1.15,2013-05-13 19:50:00,
2013-05-13 10:00:00,72.2,70.1,30.06,NE,37,7.0,7.0,93,0.00,,,0.14,Wunderground v.1.15,2013-05-13 20:00:00,
2013-05-13 10:05:00,71.9,69.8,30.06,ENE,65,7.0,7.0,93,0.00,,,0.14,Wunderground v.1.15,2013-05-13 20:05:00,
2013-05-13 10:15:00,72.1,69.6,30.06,East,93,6.0,8.0,92,0.00,,,0.14,Wunderground v.1.15,2013-05-13 20:15:00,
2013-05-13 10:25:00,72.2,69.7,30.06,East,84,7.0,7.0,92,0.00,,,0.14,Wunderground v.1.15,2013-05-13 20:25:00,
2013-05-13 10:35:00,72.4,69.9,30.06,NE,53,8.0,8.0,92,0.00,,,0.14,Wunderground v.1.15,2013-05-13 20:35:00,
2013-05-13 10:45:00,72.8,70.3,30.06,ENE,67,8.0,10.0,92,0.00,,,0.14,Wunderground v.1.15,2013-05-13 20:45:00,
2013-05-13 10:55:00,73.8,71.6,30.05,ENE,69,7.0,8.0,93,0.00,,,0.14,Wunderground v.1.15,2013-05-13 20:55:00,
2013-05-13 11:00:00,73.8,71.0,30.06,NE,40,6.0,9.0,91,0.00,,,0.14,Wunderground v.1.15,2013-05-13 21:00:00,
2013-05-13 11:05:00,73.8,71.3,30.06,NE,55,6.0,9.0,92,0.00,,,0.14,Wunderground v.1.15,2013-05-13 21:05:00,
2013-05-13 11:15:00,73.7,70.6,30.06,ENE,64,7.0,7.0,90,0.00,,,0.14,Wunderground v.1.15,2013-05-13 21:15:00,
2013-05-13 11:20:00,73.6,70.5,30.05,East,88,7.0,7.0,90,0.00,,,0.14,Wunderground v.1.15,2013-05-13 21:20:00,
2013-05-13 11:30:00,74.1,70.3,30.05,East,93,6.0,7.0,88,0.00,,,0.14,Wunderground v.1.15,2013-05-13 21:30:00,
2013-05-13 11:40:00,73.4,70.6,30.05,East,87,8.0,8.0,91,0.00,,,0.14,Wunderground v.1.15,2013-05-13 21:40:00,
2013-05-13 11:50:00,73.4,70.6,30.05,East,90,6.0,6.0,91,0.00,,,0.14,Wunderground v.1.15,2013-05-13 21:50:00,
2013-05-13 11:55:00,74.1,71.3,30.05,SE,128,6.0,8.0,91,0.00,,,0.14,Wunderground v.1.15,2013-05-13 21:55:00,
2013-05-13 12:05:00,74.0,70.9,30.05,ENE,63,6.0,6.0,90,0.00,,,0.14,Wunderground v.1.15,2013-05-13 22:05:00,
2013-05-13 12:15:00,74.2,70.4,30.04,East,99,5.0,7.0,88,0.00,,,0.14,Wunderground v.1.15,2013-05-13 22:15:00,
2013-05-13 12:20:00,74.3,70.2,30.05,ESE,106,6.0,6.0,87,0.00,,,0.14,Wunderground v.1.15,2013-05-13 22:20:00,
2013-05-13 12:30:00,75.5,71.4,30.04,East,92,5.0,5.0,87,0.00,,,0.14,Wunderground v.1.15,2013-05-13 22:30:00,
2013-05-13 12:40:00,76.4,72.2,30.04,ENE,72,5.0,5.0,87,0.00,,,0.14,Wunderground v.1.15,2013-05-13 22:40:00,
2013-05-13 12:50:00,76.2,71.0,30.03,ENE,60,7.0,7.0,84,0.00,,,0.14,Wunderground v.1.15,2013-05-13 22:50:00,
2013-05-13 12:55:00,76.3,70.8,30.03,East,94,8.0,8.0,83,0.00,,,0.14,Wunderground v.1.15,2013-05-13 22:55:00,
2013-05-13 13:05:00,74.9,71.1,30.03,NE,55,5.0,6.0,88,0.00,,,0.15,Wunderground v.1.15,2013-05-13 23:05:00,
2013-05-13 13:15:00,74.7,71.6,30.03,East,84,5.0,12.0,90,0.00,,,0.15,Wunderground v.1.15,2013-05-13 23:15:00,
2013-05-13 13:25:00,75.1,71.0,30.03,East,94,6.0,6.0,87,0.00,,,0.15,Wunderground v.1.15,2013-05-13 23:25:00,
2013-05-13 13:35:00,75.7,70.9,30.02,East,79,6.0,6.0,85,0.00,,,0.15,Wunderground v.1.15,2013-05-13 23:35:00,
2013-05-13 13:45:00,75.0,70.9,30.02,ENE,57,6.0,11.0,87,0.00,,,0.15,Wunderground v.1.15,2013-05-13 23:45:00,
2013-05-13 13:55:00,74.5,71.0,30.02,East,96,6.0,9.0,89,0.00,,,0.15,Wunderground v.1.15,2013-05-13 23:55:00,
2013-05-13 14:05:00,74.4,71.3,30.01,ESE,110,5.0,5.0,90,0.00,,,0.15,Wunderground v.1.15,2013-05-14 00:05:00,
2013-05-13 14:15:00,74.9,71.8,30.01,East,90,6.0,6.0,90,0.00,,,0.15,Wunderground v.1.15,2013-05-14 00:15:00,
2013-05-13 14:25:00,75.7,71.6,30.00,NE,48,6.0,6.0,87,0.00,,,0.15,Wunderground v.1.15,2013-05-14 00:25:00,
2013-05-13 14:35:00,75.7,71.2,30.00,ENE,74,7.0,7.0,86,0.00,,,0.15,Wunderground v.1.15,2013-05-14 00:35:00,
2013-05-13 14:45:00,75.6,71.8,30.00,ENE,61,6.0,7.0,88,0.00,,,0.15,Wunderground v.1.15,2013-05-14 00:45:00,
2013-05-13 14:55:00,75.7,71.2,30.00,East,88,7.0,7.0,86,0.00,,,0.15,Wunderground v.1.15,2013-05-14 00:55:00,
2013-05-13 15:00:00,76.0,71.2,30.00,East,90,5.0,7.0,85,0.00,,,0.15,Wunderground v.1.15,2013-05-14 01:00:00,
2013-05-13 15:05:00,76.0,71.2,30.00,East,87,5.0,7.0,85,0.00,,,0.15,Wunderground v.1.15,2013-05-14 01:05:00,
2013-05-13 15:15:00,75.8,70.6,30.00,ESE,105,5.0,9.0,84,0.00,,,0.15,Wunderground v.1.15,2013-05-14 01:15:00,
2013-05-13 15:25:00,76.0,70.8,29.99,ENE,68,4.0,5.0,84,0.00,,,0.15,Wunderground v.1.15,2013-05-14 01:25:00,
2013-05-13 15:35:00,77.2,71.6,29.99,NE,38,4.0,7.0,83,0.00,,,0.15,Wunderground v.1.15,2013-05-14 01:35:00,
2013-05-13 15:45:00,77.3,71.0,29.99,NE,55,5.0,5.0,81,0.00,,,0.15,Wunderground v.1.15,2013-05-14 01:45:00,
2013-05-13 15:55:00,77.0,70.7,29.99,East,94,5.0,5.0,81,0.00,,,0.15,Wunderground v.1.15,2013-05-14 01:55:00,
2013-05-13 16:05:00,76.9,71.0,29.99,East,90,4.0,7.0,82,0.00,,,0.15,Wunderground v.1.15,2013-05-14 02:05:00,
2013-05-13 16:15:00,76.4,70.5,29.99,NE,48,5.0,5.0,82,0.00,,,0.15,Wunderground v.1.15,2013-05-14 02:15:00,
2013-05-13 16:25:00,76.1,69.8,29.99,ENE,76,4.0,5.0,81,0.00,,,0.15,Wunderground v.1.15,2013-05-14 02:25:00,
2013-05-13 16:35:00,75.8,70.6,29.99,NE,48,5.0,7.0,84,0.00,,,0.15,Wunderground v.1.15,2013-05-14 02:35:00,
2013-05-13 16:45:00,75.5,70.0,29.99,NE,38,4.0,6.0,83,0.00,,,0.15,Wunderground v.1.15,2013-05-14 02:45:00,
2013-05-13 16:55:00,75.8,69.9,29.98,NE,52,4.0,9.0,82,0.00,,,0.15,Wunderground v.1.15,2013-05-14 02:55:00,
2013-05-13 17:00:00,75.9,69.6,29.98,ENE,68,5.0,5.0,81,0.00,,,0.15,Wunderground v.1.15,2013-05-14 03:00:00,
2013-05-13 17:05:00,76.0,69.7,29.99,NE,34,5.0,5.0,81,0.00,,,0.15,Wunderground v.1.15,2013-05-14 03:05:00,
2013-05-13 17:15:00,76.4,70.1,29.98,NNE,32,5.0,5.0,81,0.00,,,0.15,Wunderground v.1.15,2013-05-14 03:15:00,
2013-05-13 17:20:00,76.7,70.1,29.98,ENE,60,5.0,7.0,80,0.00,,,0.15,Wunderground v.1.15,2013-05-14 03:20:00,
2013-05-13 17:25:00,76.7,70.1,29.99,East,90,4.0,7.0,80,0.00,,,0.15,Wunderground v.1.15,2013-05-14 03:25:00,
2013-05-13 17:35:00,76.0,70.1,29.99,NE,42,6.0,6.0,82,0.00,,,0.15,Wunderground v.1.15,2013-05-14 03:35:00,
2013-05-13 17:40:00,75.9,70.0,29.99,East,80,5.0,5.0,82,0.00,,,0.15,Wunderground v.1.15,2013-05-14 03:40:00,
2013-05-13 17:50:00,75.5,70.0,29.99,East,81,5.0,5.0,83,0.00,,,0.15,Wunderground v.1.15,2013-05-14 03:50:00,
2013-05-13 18:00:00,75.2,70.0,30.00,NE,48,4.0,4.0,84,0.00,,,0.15,Wunderground v.1.15,2013-05-14 04:00:00,
2013-05-13 18:05:00,75.2,70.4,30.00,NE,53,4.0,4.0,85,0.00,,,0.15,Wunderground v.1.15,2013-05-14 04:05:00,
2013-05-13 18:10:00,75.1,70.3,30.00,NNE,33,4.0,5.0,85,0.00,,,0.15,Wunderground v.1.15,2013-05-14 04:10:00,
2013-05-13 18:15:00,75.0,70.5,29.99,NE,40,5.0,5.0,86,0.00,,,0.15,Wunderground v.1.15,2013-05-14 04:15:00,
2013-05-13 18:20:00,74.7,70.2,30.00,East,90,5.0,5.0,86,0.00,,,0.15,Wunderground v.1.15,2013-05-14 04:20:00,
2013-05-13 18:25:00,74.5,70.4,30.00,East,92,5.0,5.0,87,0.00,,,0.15,Wunderground v.1.15,2013-05-14 04:25:00,
2013-05-13 18:35:00,74.3,70.2,30.00,NNE,26,4.0,6.0,87,0.00,,,0.15,Wunderground v.1.15,2013-05-14 04:35:00,
2013-05-13 18:45:00,74.1,70.0,30.00,NE,41,5.0,5.0,87,0.00,,,0.15,Wunderground v.1.15,2013-05-14 04:45:00,
2013-05-13 18:55:00,74.0,69.9,30.00,NE,52,5.0,5.0,87,0.00,,,0.15,Wunderground v.1.15,2013-05-14 04:55:00,
2013-05-13 19:05:00,74.1,70.0,30.01,ENE,68,4.0,5.0,87,0.00,,,0.15,Wunderground v.1.15,2013-05-14 05:05:00,
2013-05-13 19:15:00,74.2,70.1,30.01,ENE,74,4.0,6.0,87,0.00,,,0.15,Wunderground v.1.15,2013-05-14 05:15:00,
2013-05-13 19:20:00,74.1,70.0,30.01,East,99,4.0,4.0,87,0.00,,,0.15,Wunderground v.1.15,2013-05-14 05:20:00,
2013-05-13 19:25:00,74.2,70.1,30.01,East,90,3.0,4.0,87,0.00,,,0.15,Wunderground v.1.15,2013-05-14 05:25:00,
2013-05-13 19:30:00,74.1,70.0,30.01,ENE,70,3.0,3.0,87,0.00,,,0.15,Wunderground v.1.15,2013-05-14 05:30:00,
2013-05-13 19:40:00,74.3,70.2,30.02,ENE,78,3.0,5.0,87,0.00,,,0.15,Wunderground v.1.15,2013-05-14 05:40:00,
2013-05-13 19:50:00,74.3,70.2,30.02,NE,55,3.0,3.0,87,0.00,,,0.15,Wunderground v.1.15,2013-05-14 05:50:00,
2013-05-13 20:00:00,74.2,70.4,30.03,ENE,77,3.0,3.0,88,0.00,,,0.15,Wunderground v.1.15,2013-05-14 06:00:00,
2013-05-13 20:05:00,74.2,70.4,30.03,East,92,4.0,4.0,88,0.00,,,0.15,Wunderground v.1.15,2013-05-14 06:05:00,
2013-05-13 20:15:00,74.2,70.4,30.03,ENE,60,4.0,5.0,88,0.00,,,0.15,Wunderground v.1.15,2013-05-14 06:15:00,
2013-05-13 20:25:00,74.2,70.1,30.03,East,84,4.0,5.0,87,0.00,,,0.15,Wunderground v.1.15,2013-05-14 06:25:00,
2013-05-13 20:35:00,74.2,70.1,30.03,East,83,4.0,7.0,87,0.00,,,0.15,Wunderground v.1.15,2013-05-14 06:35:00,
2013-05-13 20:45:00,74.1,70.0,30.03,ENE,71,4.0,4.0,87,0.00,,,0.15,Wunderground v.1.15,2013-05-14 06:45:00,
2013-05-13 20:55:00,74.1,70.3,30.03,ENE,62,5.0,5.0,88,0.00,,,0.15,Wunderground v.1.15,2013-05-14 06:55:00,
2013-05-13 21:05:00,74.0,70.2,30.03,East,82,5.0,5.0,88,0.00,,,0.15,Wunderground v.1.15,2013-05-14 07:05:00,
2013-05-13 21:15:00,74.1,70.3,30.03,ENE,76,5.0,5.0,88,0.00,,,0.15,Wunderground v.1.15,2013-05-14 07:15:00,
2013-05-13 21:25:00,74.1,70.3,30.04,ENE,74,5.0,5.0,88,0.00,,,0.15,Wunderground v.1.15,2013-05-14 07:25:00,
2013-05-13 21:35:00,74.1,70.3,30.04,ESE,115,5.0,11.0,88,0.00,,,0.15,Wunderground v.1.15,2013-05-14 07:35:00,
2013-05-13 21:45:00,74.1,70.0,30.04,East,80,5.0,5.0,87,0.00,,,0.15,Wunderground v.1.15,2013-05-14 07:45:00,
2013-05-13 21:55:00,74.1,70.3,30.05,ENE,67,6.0,7.0,88,0.00,,,0.15,Wunderground v.1.15,2013-05-14 07:55:00,
2013-05-13 22:05:00,74.0,70.2,30.04,East,92,5.0,6.0,88,0.00,,,0.15,Wunderground v.1.15,2013-05-14 08:05:00,
2013-05-13 22:15:00,74.0,69.9,30.05,ENE,65,5.0,5.0,87,0.00,,,0.15,Wunderground v.1.15,2013-05-14 08:15:00,
2013-05-13 22:25:00,74.1,70.3,30.04,East,80,4.0,5.0,88,0.00,,,0.15,Wunderground v.1.15,2013-05-14 08:25:00,
2013-05-13 22:35:00,74.0,69.9,30.05,ESE,106,5.0,5.0,87,0.00,,,0.15,Wunderground v.1.15,2013-05-14 08:35:00,
2013-05-13 22:45:00,74.2,70.1,30.05,ENE,72,5.0,9.0,87,0.00,,,0.15,Wunderground v.1.15,2013-05-14 08:45:00,
2013-05-13 22:50:00,74.1,70.0,30.05,East,87,4.0,7.0,87,0.00,,,0.15,Wunderground v.1.15,2013-05-14 08:50:00,
2013-05-13 23:00:00,74.2,70.1,30.05,East,94,6.0,6.0,87,0.00,,,0.15,Wunderground v.1.15,2013-05-14 09:00:00,
2013-05-13 23:05:00,74.2,70.1,30.04,NE,37,5.0,6.0,87,0.00,,,0.15,Wunderground v.1.15,2013-05-14 09:05:00,
2013-05-13 23:15:00,74.2,70.1,30.04,East,80,4.0,4.0,87,0.00,,,0.15,Wunderground v.1.15,2013-05-14 09:15:00,
2013-05-13 23:25:00,74.2,70.1,30.04,NE,55,4.0,10.0,87,0.00,,,0.15,Wunderground v.1.15,2013-05-14 09:25:00,
2013-05-13 23:35:00,74.2,70.1,30.04,ENE,73,6.0,12.0,87,0.00,,,0.15,Wunderground v.1.15,2013-05-14 09:35:00,
2013-05-13 23:40:00,74.2,70.1,30.04,ENE,76,6.0,6.0,87,0.00,,,0.15,Wunderground v.1.15,2013-05-14 09:40:00,
2013-05-13 23:50:00,74.2,70.1,30.04,East,95,5.0,7.0,87,0.00,,,0.15,Wunderground v.1.15,2013-05-14 09:50:00,